This is the latest recevied weather packets stored in our database for station/object DL1EEM-13. If no packets are shown the sender has not sent any weather packets the latest 10 day(s).
| Time | Temp. | Humidity | Pressure | Rain* | Wind** | Luminosity | Snow |
|---|---|---|---|---|---|---|---|
| 1777251890 | 5° C | 64% | 1023.5 hPa | - | - | - | - |
| 1777250990 | 5° C | 64% | 1023.3 hPa | - | - | - | - |
| 1777250090 | 5.56° C | 66% | 1023.4 hPa | - | - | - | - |
| 1777249190 | 5.56° C | 66% | 1023.5 hPa | - | - | - | - |
| 1777248290 | 5.56° C | 66% | 1023.6 hPa | - | - | - | - |
| 1777247390 | 6.11° C | 67% | 1023.5 hPa | - | - | - | - |
| 1777246490 | 6.11° C | 68% | 1023.7 hPa | - | - | - | - |
| 1777245590 | 6.11° C | 65% | 1023.7 hPa | - | - | - | - |
| 1777244690 | 7.22° C | 67% | 1023.6 hPa | - | - | - | - |
| 1777243789 | 7.22° C | 65% | 1023.6 hPa | - | - | - | - |
| 1777242889 | 7.22° C | 65% | 1023.7 hPa | - | - | - | - |
| 1777241989 | 7.22° C | 63% | 1023.7 hPa | - | - | - | - |
| 1777241089 | 7.22° C | 62% | 1023.7 hPa | - | - | - | - |
| 1777240189 | 7.22° C | 61% | 1023.6 hPa | - | - | - | - |
| 1777239289 | 7.78° C | 61% | 1023.7 hPa | - | - | - | - |
| 1777238389 | 8.33° C | 60% | 1023.6 hPa | - | - | - | - |
| 1777237491 | 8.89° C | 60% | 1023.7 hPa | - | - | - | - |
| 1777236591 | 8.89° C | 59% | 1023.7 hPa | - | - | - | - |
| 1777235692 | 9.44° C | 58% | 1023.7 hPa | - | - | - | - |
| 1777234791 | 9.44° C | 57% | 1023.6 hPa | - | - | - | - |
| 1777233893 | 10° C | 57% | 1023.7 hPa | - | - | - | - |
| 1777232993 | 10.56° C | 57% | 1023.6 hPa | - | - | - | - |
| 1777232093 | 11.11° C | 56% | 1023.6 hPa | - | - | - | - |
| 1777231194 | 11.67° C | 54% | 1023.5 hPa | - | - | - | - |
| 1777230290 | 11.67° C | 55% | 1023.3 hPa | - | - | - | - |
* Rain since midnight (hover to see other rain measurements)
** Current wind speed in m/s (hover to see current wind gust speed)